Location: Arbon
(43.0005°N, 0.7472°E)
Time: 00:28:45
(UTC+00:00)

Cosmos 1626 - Pass Details

Date: 07 August 2020
Orbit: 491 x 494 km, 82.5° (Epoch: 19 September)

Event Time Altitude Azimuth Distance (km) Brightness Sun altitude
Rises 02:33:37 0° 348° (NNW) 2,589 6.3 -21.3°
Reaches altitude 10° 02:35:46 10° 345° (NNW) 1,701 5.3 -21.1°
Enters shadow 02:39:10 58° 287° (WNW) 581 2.2 -20.7°
